Flag for Austria Past Weather in Kirchdorf an der Krems, Upper Austria, Austria — Yesterday and Last 2 Weeks

Now
74 °F

Mild.


Feels Like: 76 °F
Forecast: 58 / 66 °F
Wind: 9 mph from East

Location: Kremsmuenster

Current Time: May 29, 2016 at 7:18:23 PM

Latest Report: May 29, 2016 at 6:00 PM


Visibility: N/A

Pressure: 29.57 "Hg

Humidity: 72%

Dew Point: 65 °F

Location of Kirchdorf an der KremsLocation

Past Weather in Kirchdorf an der Krems — Graph

°F

Kirchdorf an der Krems Temperature Yesterday

Maximum temperature yesterday: 80 °F (at 5:00 PM)
Minimum temperature yesterday: 59 °F (at 6:00 AM)
Average temperature yesterday: 68 °F

High & Low Weather Summary for the Past Weeks

 TemperatureHumidityPressure
High83 °F (May 22, 5:00 PM)98% (May 29, 7:00 AM)30.20 "Hg (May 29, 7:00 AM)
Low42 °F (May 17, 4:00 AM)42% (May 22, 6:00 PM)29.57 "Hg (May 29, 6:00 PM)
Average57 °F73%29.97 "Hg
* Reported May 14 8:00 PM — May 29 6:00 PM, Kirchdorf an der Krems, Weather by CustomWeather, © 2016

Note: Actual official high and low records may vary slightly from our data, if they occured in-between our weather recording intervals... More about our weather records

Advertising

Kirchdorf an der Krems Weather History for the Previous 24 Hours

Scroll right to see more
 ConditionsComfort  
Time TempWeatherWind HumidityBarometerVisibility
6:00 PM
Sun, May 29
74 °FMild.9 mph72%29.57 "HgN/A
5:00 PM74 °FPassing clouds.5 mph72%29.59 "Hg2 mi
3:00 PM73 °FMild.6 mph69%29.64 "HgN/A
2:00 PM74 °FMild.3 mph67%29.65 "HgN/A
1:00 PM71 °FMild.2 mph71%29.67 "HgN/A
12:00 PM69 °FMild.1 mph77%29.70 "HgN/A
11:00 AM66 °FOvercast.1 mph80%29.71 "Hg4 mi
10:00 AM63 °FMild.1 mph84%29.73 "HgN/A
8:00 AM59 °FFog.3 mph95%29.75 "Hg1 mi
7:00 AM58 °FFog.2 mph98%29.76 "Hg1 mi
6:00 AM58 °FCool.No wind94%29.76 "HgN/A
5:00 AM59 °FCool.1 mph94%29.77 "HgN/A
4:00 AM59 °FCool.5 mph96%29.79 "HgN/A
3:00 AM58 °FCool.2 mph97%29.80 "HgN/A
2:00 AM59 °FCool.1 mph94%29.78 "HgN/A
1:00 AM60 °FCool.1 mph94%29.81 "HgN/A
12:00 AM61 °FCool.No wind93%29.85 "HgN/A
11:00 PM
Sat, May 28
62 °FCool.1 mph91%29.86 "HgN/A
10:00 PM62 °FFog.5 mph88%29.84 "HgN/A
9:00 PM62 °FCool.7 mph83%29.85 "HgN/A
8:00 PM74 °FThunderstorms. Low clouds.2 mph60%29.81 "Hg6 mi
Weather by CustomWeather, © 2016

See weather overviewHow to use our weather pages